Regional Weather Roundup
Issued by NWS

Home | Current Version | Previous Version | Text Only | Print | Product List | Glossary Off
Versions: 1 2 3 4 5 6 7 8 9 10 11 12 13 14 15 16 17 18 19 20 21 22 23 24 25 26 27 28 29 30 31 32 33 34 35 36 37 38 39 40 41 42 43 44 45 46 47 48 49 50

000
ASUS45 KCYS 060410
RWRWY

WYOMING REGIONAL WEATHER ROUNDUP
NATIONAL WEATHER SERVICE CHEYENNE WY
900 PM MST THU MAR 05 2015

NOTE:  "FAIR" INDICATES FEW OR NO CLOUDS BELOW 12,000 FEET
WITH NO SIGNIFICANT WEATHER AND/OR OBSTRUCTIONS TO VISIBILITY.

WYZ001-060500-
YELLOWSTONE NATIONAL PARK

CITY           SKY/WX    TMP DP  RH WIND       PRES   REMARKS
LK YELLOWSTONE   N/A     21   8  57 CALM      30.34R
W YELLOWSTONE  NOT AVBL

$$
WYZ002>013-054>058-071-098>099-060500-
NORTHERN WYOMING

CITY           SKY/WX    TMP DP  RH WIND       PRES   REMARKS
JACKSON        FAIR      34   9  35 W14G25    30.32S WCI  24
CODY           MOCLDY    43   9  24 W12G30    30.17S
GREYBULL       FAIR      31  17  56 E7        30.23R WCI  24
WORLAND        FAIR      27  20  75 CALM      30.21S
SHERIDAN       CLOUDY    32  21  64 E3        30.16R
BUFFALO        FAIR      31  16  54 NW6       30.16S WCI  25
GILLETTE       FAIR      33  17  51 W10       30.15R WCI  25
HULETT         FAIR      32  19  59 SW9       30.14R WCI  24
NEWCASTLE      FAIR      30  16  55 N8        30.17S WCI  23

$$
WYZ014>020-022>026-101>103-060500-
CENTRAL WYOMING

CITY           SKY/WX    TMP DP  RH WIND       PRES   REMARKS
BIG PINEY      FAIR      23  13  65 N7        30.34R WCI  15
PINEDALE       FAIR      19  10  68 N8        30.34S WCI   9
DUBOIS         FAIR      25  10  54 NW8       30.27R WCI  16
LANDER         FAIR      16  11  80 SE3       30.22S
RIVERTON       FAIR      17   7  64 SW8       30.23F WCI   7
CASPER         FAIR      31  20  63 SW15      30.20S WCI  20
DOUGLAS        FAIR      19  13  77 N5        30.21S WCI  12

$$
WYZ021-027>030-104>119-060500-
SOUTHERN WYOMING

CITY           SKY/WX    TMP DP  RH WIND       PRES   REMARKS
EVANSTON       FAIR      25  13  60 SW10      30.39S WCI  15
FORT BRIDGER   FAIR      29  16  59 W14       30.39F WCI  18
ROCK SPRINGS   NOT AVBL
DIXON          FAIR      24  17  73 CALM      30.39R
RAWLINS        FAIR      29  16  58 W24G31    30.26R WCI  15
SARATOGA       MOCLDY    23  14  68 SE13G20   30.32S WCI  11
LARAMIE        FAIR      24  10  55 W12       30.24R WCI  13
CHEYENNE       FAIR      32  14  47 SW13      30.23R WCI  22
TORRINGTON     FAIR      30  20  66 SW3       30.21S
PINE BLUFFS    FAIR      27  18  69 SW5       30.25R WCI  21

$$


USA.gov is the U.S. government's official web portal to all federal, state and local government web resources and services.